PDT,Max TemperatureF,Mean TemperatureF,Min TemperatureF,Max Dew PointF,MeanDew PointF,Min DewpointF,Max Humidity, Mean Humidity, Min Humidity, Max Sea Level PressureIn, Mean Sea Level PressureIn, Min Sea Level PressureIn, Max VisibilityMiles, Mean VisibilityMiles, Min VisibilityMiles, Max Wind SpeedMPH, Mean Wind SpeedMPH, Max Gust SpeedMPH,PrecipitationIn, CloudCover, Events, WindDirDegrees
2013-4-1,44,38,33,39,37,32,100,90,81,30.16,30.09,30.00,10,10,4,14,7,17,0.10,8,,156
2013-4-2,60,50,39,45,40,36,100,77,48,30.21,30.17,30.13,10,10,8,13,5,16,0.00,7,,182
2013-4-3,62,45,28,43,36,27,100,73,37,30.20,30.14,30.04,10,10,9,9,4,,0.00,,,340
2013-4-4,55,46,37,45,39,36,93,75,54,30.03,29.97,29.93,10,10,10,29,11,36,0.00,,,194
2013-4-5,55,47,39,37,36,34,87,71,47,30.07,30.04,30.01,10,10,10,21,13,28,0.00,,,190
2013-4-6,53,46,39,39,36,30,93,74,44,30.05,30.01,29.95,10,10,8,25,15,30,0.00,,,194
2013-4-7,51,42,30,39,34,27,93,75,50,29.95,29.82,29.70,10,10,3,36,17,46,0.00,,,234
2013-4-8,46,37,28,28,23,19,93,63,37,30.13,29.94,29.74,10,9,2,30,18,39,0.00,,,351
2013-4-9,55,42,30,28,25,19,86,57,25,30.28,30.21,30.14,10,10,10,18,11,24,0.00,,,359
2013-4-10,64,45,26,45,33,25,93,66,34,30.32,30.22,30.13,10,10,10,23,9,32,0.00,,,306
2013-4-11,57,40,24,28,22,9,93,54,15,30.18,30.11,30.04,10,10,10,17,10,23,0.00,,,349
2013-4-12,64,44,24,32,22,16,74,41,16,30.06,29.97,29.85,10,10,10,21,11,25,0.00,,,248
2013-4-13,55,40,26,36,23,9,75,47,16,29.96,29.87,29.84,10,10,10,26,14,34,0.00,,,255
2013-4-14,48,32,17,27,20,14,100,65,32,29.96,29.85,29.74,10,10,9,17,7,22,0.00,,,329
2013-4-15,37,30,23,28,25,21,93,80,52,29.95,29.81,29.77,10,8,0,22,8,36,0.04,,,1
2013-4-16,42,34,26,28,21,16,93,66,36,30.23,30.08,29.95,10,9,1,25,15,33,0.00,,,352
2013-4-17,48,34,21,19,15,10,86,51,25,30.34,30.30,30.23,10,10,10,20,11,28,0.00,,,3
2013-4-18,57,40,24,34,24,16,87,55,31,30.38,30.34,30.29,10,10,4,12,7,,0.00,,,334
2013-4-19,59,42,26,45,32,25,93,70,34,30.31,30.24,30.17,10,10,6,22,8,33,0.00,,,274
2013-4-20,60,40,19,32,26,18,100,60,25,30.28,30.22,30.14,10,10,10,12,5,,0.00,,,122
2013-4-21,66,45,24,34,28,21,93,55,24,30.23,30.18,30.12,10,10,10,23,9,28,0.00,,,297
2013-4-22,53,38,24,34,22,12,93,54,19,30.29,30.24,30.19,10,10,10,21,10,28,0.00,,,357
2013-4-23,62,44,26,21,15,7,69,34,13,30.29,30.17,30.05,10,10,10,20,10,24,0.00,,,355
2013-4-24,64,48,33,21,15,10,45,29,13,30.22,30.15,30.07,10,10,10,16,11,25,0.00,0,,30
2013-4-25,71,45,19,30,21,14,80,41,15,30.20,30.10,30.06,10,10,5,12,7,,0.00,1,,321
2013-4-26,73,53,33,37,31,28,81,46,20,30.32,30.27,30.19,10,10,7,14,8,16,0.00,0,,342
2013-4-27,75,54,32,39,29,21,81,41,13,30.36,30.29,30.20,10,10,10,16,8,21,0.00,0,,296
2013-4-28,71,52,33,37,30,25,87,46,19,30.23,30.18,30.11,10,10,10,17,6,29,0.00,0,,267
2013-4-29,62,48,33,36,31,19,87,53,25,30.16,30.07,29.98,10,10,10,20,8,26,0.00,1,,254
2013-4-30,55,42,28,25,14,3,80,40,14,30.30,30.10,29.99,10,10,8,23,12,30,0.00,0,,355